Wind_Speed
81 82 82 82 83 83 83 83 82 80 77 74 74 74 74 74 74 74 73 73 72 72 71 71 71 71 71 70 69 69 69 69 68 68 67 67 67 67
83 83 83 83 83 83 83 83 83 82 79 74 75 74 74 74 74 73 73 73 73 73 72 72 71 71 71 71 71 71 71 70 69 69 69 69 68 68
83 83 83 83 83 83 83 82 82 81 80 74 75 74 74 74 74 74 74 74 73 73 73 72 71 70 70 70 70 70 70 70 70 69 69 69 70 70
80 81 81 81 82 81 80 79 79 78 77 74 73 74 73 73 73 73 73 73 73 72 71 70 70 70 69 69 69 69 69 69 69 69 70 70 70 71
76 77 76 76 76 75 75 74 74 74 73 72 70 71 71 71 72 72 72 71 71 70 70 69 69 69 68 68 67 67 66 67 67 68 69 69 69 69
71 71 70 70 70 70 70 69 69 69 69 69 67 67 68 68 69 68 68 68 67 67 67 67 67 66 65 66 66 65 65 65 66 67 67 67 68 68
65 65 65 64 64 64 64 64 65 65 65 64 63 63 64 64 64 64 65 64 64 64 64 64 64 63 64 64 64 64 64 65 66 66 66 67 67 68
60 59 59 59 59 60 60 61 62 61 61 61 60 60 59 60 61 61 61 61 60 60 62 61 61 61 62 63 64 65 65 65 65 66 66 67 68 69
55 54 53 54 55 56 56 57 58 58 59 59 58 57 57 57 59 59 58 58 58 59 60 59 59 60 61 62 62 63 64 65 66 66 67 67 68 68
50 50 50 50 51 52 52 52 53 54 54 55 54 53 54 56 56 56 56 56 55 56 56 57 58 58 59 60 61 62 62 63 64 65 65 65 66 67
46 46 47 47 48 49 49 49 49 49 50 51 52 52 52 52 53 53 54 54 54 54 55 55 56 57 58 58 59 60 61 62 63 63 64 65 65 66
42 43 44 45 45 46 46 46 46 46 47 48 49 49 49 50 51 51 52 52 52 52 53 54 55 56 56 56 58 59 59 60 61 62 63 64 65 66
41 41 41 42 43 43 44 44 44 44 44 45 45 46 47 48 49 50 50 51 51 50 51 53 53 54 55 54 54 55 57 58 59 60 60 61 62 64
40 40 40 40 41 41 42 42 42 41 42 42 42 43 44 46 47 47 48 49 49 49 50 51 51 51 52 51 51 52 53 54 55 56 57 58 59 60
40 39 38 38 38 38 39 39 39 39 39 40 40 40 42 43 44 45 45 46 47 47 48 48 49 49 50 49 48 49 50 50 52 53 54 56 56 57
38 37 36 36 36 35 35 35 36 36 36 36 37 38 39 40 41 42 42 43 44 44 45 46 47 47 47 47 47 46 47 48 49 51 53 54 54 54
35 34 34 34 34 33 33 33 33 34 34 35 36 36 36 37 37 38 39 40 40 40 41 43 44 45 45 45 45 45 46 48 49 51 53 53 52 52
33 33 32 32 32 32 32 33 33 34 34 35 35 35 36 36 37 37 38 38 39 39 40 41 42 43 43 43 43 45 46 47 49 50 52 52 51 52
32 32 32 31 31 32 32 32 33 33 34 34 35 36 36 37 37 37 38 37 38 38 39 40 42 42 42 42 42 45 46 48 49 50 50 51 50 50
32 31 31 31 31 32 32 32 32 33 33 34 35 35 35 35 35 36 36 36 37 38 38 40 41 42 42 42 42 43 46 47 48 48 49 50 50 49
31 30 30 29 29 30 30 30 31 32 32 33 33 33 33 33 33 34 35 36 36 37 38 38 40 41 42 42 41 41 43 46 47 48 48 49 47 46
29 28 28 28 29 29 29 29 29 29 29 30 30 30 31 31 32 33 34 35 36 36 37 38 39 40 40 40 40 40 41 43 45 46 45 44 42 40
28 27 27 28 28 28 28 27 27 27 27 28 28 29 30 30 31 31 32 33 34 34 35 36 37 38 39 39 39 39 40 41 42 42 41 40 38 36
Wind_Direction
278 276 275 275 274 273 273 273 273 272 271 272 272 272 271 271 270 270 270 271 270 270 270 270 269 268 267 266 265 265 266 266 265 264 263 263 262 262
277 276 275 274 273 273 272 272 272 272 271 270 270 269 269 270 270 270 270 270 270 269 269 269 268 267 266 265 265 265 265 265 265 264 263 263 262 261
277 276 274 273 273 272 272 272 271 271 271 269 269 268 268 268 268 269 269 269 269 269 268 268 267 266 266 265 265 265 264 265 264 263 262 262 262 262
278 276 275 274 273 273 272 272 271 271 270 269 267 267 267 268 268 269 269 269 269 269 268 267 266 265 265 265 265 264 264 264 263 262 262 262 262 262
279 278 277 275 274 273 272 272 271 271 271 270 268 268 267 268 268 269 270 269 268 267 267 266 265 265 265 265 264 264 264 264 263 263 263 262 262 262
280 279 277 276 275 274 272 272 271 271 271 271 270 269 268 268 268 269 269 268 267 266 265 265 265 265 265 264 264 264 264 263 263 263 263 262 262 262
281 280 278 276 275 274 273 272 272 271 271 271 270 269 269 268 268 267 267 267 266 266 266 265 265 265 264 264 264 264 264 263 264 264 263 263 263 262
283 281 280 278 276 275 274 273 272 271 270 270 269 269 268 268 267 267 267 267 266 266 265 265 265 265 265 265 264 264 264 264 264 264 264 264 263 263
284 281 280 278 277 276 275 274 274 273 272 271 269 269 268 267 267 268 267 267 266 265 265 266 266 266 266 265 264 264 264 264 264 264 265 264 265 265
286 284 281 280 279 278 276 275 275 274 273 272 270 268 268 268 268 268 267 267 266 266 266 266 267 267 266 265 265 265 265 265 265 265 265 265 265 265
287 285 284 282 280 279 277 276 275 274 273 272 271 269 268 268 268 268 268 268 267 267 267 267 267 266 266 266 266 266 266 265 265 266 266 266 266 267
289 287 285 283 282 280 279 277 276 274 272 272 271 270 269 268 268 268 268 269 268 268 268 268 267 267 267 266 266 266 266 266 266 266 267 267 268 268
291 289 287 285 284 282 281 279 277 275 273 272 272 271 270 270 269 269 269 269 268 268 268 268 268 268 268 267 266 266 266 266 267 268 268 268 268 269
293 291 289 287 286 284 282 281 279 277 275 273 272 272 271 270 270 270 270 269 269 269 269 269 269 268 268 267 267 266 266 266 267 267 268 269 269 269
295 293 291 290 288 286 283 281 280 278 277 275 274 273 272 271 271 271 270 270 270 270 270 270 269 269 268 268 267 266 266 266 267 268 268 269 269 269
296 295 294 291 290 288 285 283 281 279 278 277 275 274 274 273 272 272 272 272 272 272 271 271 271 271 270 268 267 267 267 267 267 268 269 270 270 270
298 297 295 293 291 289 287 285 283 281 279 278 277 275 275 274 274 273 273 273 273 273 272 272 272 271 270 269 269 268 268 269 270 270 271 271 271 271
301 299 297 295 293 290 287 286 284 283 281 279 278 276 275 275 275 275 275 274 274 273 273 273 273 272 272 272 271 271 271 272 272 273 273 272 272 272
303 301 299 297 295 293 290 288 286 284 282 281 279 278 277 276 275 275 275 275 274 274 274 274 274 274 274 273 273 273 274 274 275 275 275 275 274 273
306 304 301 299 298 296 293 290 288 286 284 282 281 279 277 276 275 275 275 276 275 275 275 275 275 275 275 275 274 275 276 276 276 276 276 276 275 273
308 307 305 303 302 300 298 295 292 289 286 284 282 280 278 277 276 277 277 277 276 276 276 276 276 276 277 277 278 277 277 278 278 278 278 276 273 271
309 308 307 306 305 304 302 300 297 293 290 287 284 282 280 279 279 278 278 278 277 277 277 277 277 277 279 279 280 279 279 279 279 280 279 276 274 271
312 311 309 309 308 306 305 303 300 298 295 291 288 284 282 282 281 280 279 279 279 278 279 279 279 279 280 281 282 281 281 280 280 279 278 276 274 271
Height
5581 5576 5573 5571 5566 5564 5562 5559 5557 5560 5566 5570 5566 5565 5560 5559 5559 5558 5560 5560 5560 5561 5562 5563 5564 5565 5566 5567 5569 5570 5572 5574 5575 5578 5580 5582 5584 5586
5556 5552 5549 5546 5542 5539 5537 5535 5533 5533 5539 5549 5545 5542 5538 5538 5537 5537 5538 5538 5538 5539 5540 5542 5543 5543 5545 5546 5548 5550 5551 5553 5555 5557 5559 5561 5564 5566
5530 5526 5524 5520 5516 5514 5512 5510 5509 5508 5511 5523 5520 5519 5517 5516 5515 5515 5516 5516 5517 5517 5518 5519 5521 5522 5523 5525 5527 5528 5530 5532 5534 5536 5538 5541 5543 5546
5504 5499 5498 5494 5491 5490 5487 5486 5486 5485 5486 5494 5497 5495 5495 5494 5493 5493 5494 5494 5495 5495 5495 5497 5499 5500 5502 5504 5505 5507 5509 5511 5513 5515 5518 5520 5522 5524
5479 5475 5473 5469 5467 5465 5463 5463 5463 5463 5463 5468 5474 5472 5472 5473 5471 5471 5471 5472 5472 5473 5473 5475 5477 5479 5481 5482 5484 5486 5488 5490 5492 5494 5496 5498 5501 5503
5455 5451 5449 5446 5444 5442 5441 5442 5441 5441 5441 5444 5449 5450 5450 5450 5449 5450 5449 5449 5450 5451 5452 5454 5456 5458 5460 5462 5464 5465 5467 5468 5470 5472 5474 5477 5479 5482
5433 5430 5427 5425 5423 5421 5421 5421 5420 5420 5421 5422 5426 5427 5428 5428 5429 5428 5427 5428 5429 5430 5432 5434 5436 5438 5439 5441 5442 5444 5446 5447 5449 5451 5453 5455 5458 5460
5414 5411 5408 5405 5403 5402 5401 5401 5401 5401 5401 5402 5404 5406 5408 5407 5407 5406 5407 5408 5411 5413 5411 5414 5415 5418 5420 5421 5422 5423 5425 5426 5428 5430 5432 5434 5436 5438
5395 5392 5390 5388 5385 5384 5383 5382 5382 5382 5383 5383 5385 5387 5387 5387 5386 5387 5388 5389 5392 5392 5392 5396 5397 5399 5400 5400 5401 5402 5404 5405 5407 5409 5410 5412 5414 5416
5378 5375 5373 5371 5369 5367 5366 5366 5365 5365 5364 5365 5367 5368 5367 5367 5368 5369 5369 5371 5373 5374 5375 5377 5378 5379 5379 5380 5381 5382 5383 5384 5386 5387 5389 5390 5392 5393
5364 5360 5357 5356 5354 5351 5350 5350 5349 5349 5347 5347 5348 5350 5350 5350 5350 5351 5352 5353 5356 5357 5356 5358 5359 5359 5360 5361 5362 5362 5363 5364 5365 5366 5367 5368 5369 5370
5350 5347 5343 5341 5339 5336 5335 5334 5334 5333 5332 5332 5332 5333 5333 5333 5334 5335 5336 5336 5338 5339 5339 5339 5340 5339 5341 5343 5343 5343 5343 5344 5344 5345 5346 5347 5347 5347
5337 5334 5331 5327 5325 5322 5321 5319 5319 5318 5317 5317 5317 5317 5317 5318 5318 5318 5319 5320 5321 5322 5322 5321 5322 5321 5323 5325 5325 5324 5324 5324 5325 5325 5325 5326 5325 5325
5324 5321 5318 5315 5312 5309 5307 5306 5304 5303 5303 5303 5303 5303 5303 5302 5302 5302 5302 5303 5304 5305 5304 5304 5305 5304 5305 5306 5307 5307 5306 5306 5306 5307 5306 5306 5305 5305
5311 5308 5305 5302 5299 5297 5295 5293 5291 5290 5289 5289 5289 5289 5288 5288 5287 5287 5287 5287 5287 5288 5287 5287 5287 5287 5288 5289 5290 5290 5289 5289 5288 5288 5287 5287 5287 5286
5300 5297 5293 5290 5287 5285 5283 5281 5279 5278 5277 5276 5276 5275 5275 5274 5273 5273 5272 5272 5272 5272 5271 5271 5271 5271 5271 5272 5273 5273 5273 5272 5272 5270 5269 5269 5269 5268
5289 5286 5283 5280 5277 5274 5272 5270 5268 5267 5266 5264 5263 5262 5261 5261 5260 5259 5259 5258 5258 5258 5257 5256 5255 5255 5255 5256 5257 5257 5256 5255 5254 5252 5250 5251 5251 5250
5279 5276 5273 5270 5267 5264 5262 5260 5258 5256 5254 5252 5251 5250 5249 5248 5248 5247 5246 5245 5245 5244 5243 5242 5241 5240 5241 5241 5241 5240 5239 5238 5236 5234 5232 5232 5233 5231
5270 5266 5263 5260 5257 5254 5251 5249 5247 5244 5242 5241 5239 5238 5237 5236 5235 5234 5233 5232 5232 5231 5230 5228 5227 5226 5226 5227 5227 5224 5222 5221 5218 5217 5215 5213 5213 5213
5261 5257 5253 5250 5247 5244 5241 5238 5236 5233 5231 5229 5227 5226 5224 5223 5222 5221 5220 5220 5219 5217 5216 5215 5213 5212 5211 5211 5211 5209 5205 5203 5201 5199 5198 5195 5194 5193
5252 5248 5245 5241 5238 5234 5231 5228 5225 5222 5220 5217 5215 5214 5212 5211 5210 5209 5208 5207 5206 5205 5203 5202 5200 5198 5196 5195 5195 5194 5190 5186 5183 5182 5180 5178 5176 5175
5244 5240 5236 5233 5229 5225 5222 5218 5215 5212 5209 5206 5204 5203 5201 5200 5198 5197 5196 5194 5193 5192 5190 5188 5186 5184 5182 5180 5179 5178 5176 5172 5168 5165 5162 5161 5158 5158
5236 5232 5228 5224 5220 5217 5213 5209 5206 5203 5200 5197 5194 5192 5190 5189 5187 5186 5184 5182 5181 5179 5177 5175 5173 5171 5169 5166 5165 5163 5160 5157 5153 5150 5148 5145 5144 5143